Погода в Мангалуре

Индия     12°52′02″N   74°50′47″E
темп.,
°C
ветер,
м/с
пор.,
м/с
влажн.,
%
обл.,
%
осадки,
мм/ч
давл.,
гПа
погр.,
м
11 апреля, вс
вс1123:30+29зсз227555 0.1 1011602
02:30+28сз22780 0.1 1009385
05:30+28ссв117816 0.1 1010285
08:30+28в328237 0.1 1013264
11:30+28юз437917 0.1 1012417
14:30+29з667521 0.4 1009629
17:30+29з447465 0.6 1009785
20:30+29зсз33752 0.0 1011680
12 апреля, пн
пн1223:30+29зсз22745 0.0 1012573
02:30+28сз227618 0.0 1010632
05:30+28с12776 0.1 1011479
08:30+28всв117730 0.1 1013302
11:30+28зюз43778 0.1 1013567
14:30+29зюз987785 0.1 1009589
17:30+29з437463 0.1 1009755
20:30+29зсз4475100 0.0 1011667
13 апреля, вт
вт1323:30+29ссз227398 0.0 1012682
02:30+28с227627 0.1 1009353
05:30+27св228198 0.1 1010266
08:30+28в11795 0.0 1013277
11:30+28з4378100 0.0 1012437
14:30+29зюз7776100 0.0 1009582
17:30+29з4473100 0.0 1009742
20:30+29сз447499 0.0 1011770
14 апреля, ср
ср1423:30+29ссз117348 0.0 1012587
02:30+28зсз12768 0.0 1010489
05:30+28ссв11775 0.0 1010324
08:30+28св117899 0.1 1013345
11:30+28з4378100 0.1 1012496
14:30+29з66749 0.0 1009502
17:30+29з557318 0.0 1009683
20:30+29зсз33745 0.1 1011611
15 апреля, чт
чт1523:30+29с22747 0.1 1012589
02:30+27с22805 0.0 1009279
05:30+27ссв22815 0.0 1010223
08:30+27св22805 0.0 1012351
11:30+27зсз43813 0.0 1012447
14:30+29з767413 0.0 1008478
17:30+29сз567579 0.0 1008639
20:30+29сз557318 0.0 1010736